STARLINK-2504, 48328

Orbit data source: Space-Track

STARLINK-2504, 48328 is a payload satellite owned by SpaceX/Seattle (US) in LEO that was launched on Thu, 29 Apr 2021 UTC via an FALCON 9 launch vehicle from the Air Force Eastern Test Range (AFETR). Payload-class satellites include a variety of spacecraft equipped with specific instruments for various scientific and technological missions. These include communications satellites like Starlink; space stations such as the ISS; scientific satellites like the Hubble; Earth observation satellites from companies like Planet Labs, Umbra, and HawkEye 360; GPS; miniature CubeSats for education and research; and military/defense satellites.

Loading next visibility...
Identifier
48328, 2021-036BE
Orbit
LEO
Country
Flag of USUS
Related business
Manufacturer
SpaceX/Seattle
Mission
Operational Commercial Communications
Bus & Motor
STARLINK, Unknown motor
Mass
260 kg wet, ~248 kg dry
Launch date (UTC)
2021-04-29 (5 years ago)
Launch vehicle
FALCON 9
Launch site
Air Force Eastern Test Range (AFETR)
Object type
Payload
Rocket body
Debris
Shape & HBR
Box + 1 Pan, 10.1 m
Radar Cross Section
13.562 m², Large (>1 m²)

Expand to show TLE details & history
Last TLE update: 20 hours ago

TLE from 20 hours ago
0 STARLINK-2504
1 48328U 21036BE  26036.84230257  .00001620  00000-0  12759-3 0  9991
2 48328  53.0560 244.5870 0001560  95.0003 265.1164 15.06405349263233
Epoch: 2026-02-05T20:12Z
TLE epoch observation values (Epoch: 2026-02-05T20:12:54.942Z)
Latitude
-0.00001°
Longitude
165.36934°
Altitude
548.167 km
Speed
7.589 km/s
True Right ascension
16h 18m 20s
True Declination
0° 00' 00"
Sunlit
Object was in daylight at epoch
Visualization orbit readout
Latitude
Unknown
Longitude
Unknown
Altitude
Unknown
Speed
Unknown
Apparent Right ascension
Unknown
Apparent Declination
Unknown
Sunlit
N/A
Visualization observer readout
Local Sidereal Time
18:02:46
Azimuth
Unknown
Elevation
Unknown
Doppler factor
Unknown
Orbital elements
Apogee altitude
548.546 km
Perigee altitude
546.385 km
Semi-major axis
6,925.603 km
Eccentricity
0.00016
Inclination
53.056°
RAAN
244.587°
Arg. of periapsis
95.0003°
True anomaly
265.09859°
Mean anomaly
265.1164°
Eccentric anomaly
265.10749°
Mean motion
3.7658 °/min
Orbital period
95.6 mins
BSTAR
0.00012759
Loading maneuver chart data...
Computing Atmospheric mass density...
Loading historical data...
Loading historical data...
Loading historical data...
Loading historical data...
Loading historical data...
Loading historical data...
Loading historical data...

Documentation

Showing up to 5 results
|